Weather History for PASD - October, 2012

Change the Weather History Date:

Thursday, October 4, 2012

  Actual Average Record
Temperature  
Mean Temperature 47 °F -  
Max Temperature 48 °F 46 °F 54 °F (1984)
Min Temperature 46 °F 40 °F 35 °F (1980)
Degree Days  
Heating Degree Days 18    
Moisture  
Dew Point 43 °F    
Average Humidity 84    
Maximum Humidity 100    
Minimum Humidity 76    
Precipitation  
Precipitation 0.00 in - - ()
Sea Level Pressure  
Sea Level Pressure 29.74 in    
Wind  
Wind Speed 28 mph (South)    
Max Wind Speed 34 mph    
Max Gust Speed 43 mph    
Visibility 10 miles    
Events      
Averages and records for this station are not official NWS values.
T = Trace of Precipitation, MM = Missing Value Source: NWS Daily Summary

Daily Weather History Graph

Daily Weather History Graph

Search for Another Location

Airport or City:

Trip Planner

Search our weather history database for the weather conditions in past years. The results will help you decide how hot, cold, wet, or windy it might be!

Date:

Astronomy

Oct. 04, 2012 Rise Set
Actual Time 8:51 AM AKDT 8:08 PM AKDT
Civil Twilight 8:15 AM AKDT 8:44 PM AKDT
Nautical Twilight 7:33 AM AKDT 9:26 PM AKDT
Astronomical Twilight 6:49 AM AKDT 10:10 PM AKDT
Moon 10:03 PM AKDT (10/4) 2:08 PM AKDT (10/4)
Length of Visible Light 12h 28m
Length of Day
11h 16m
Waning Gibbous, 81% of the Moon is Illuminated
Oct 4
Waning Gibbous
Oct 7
Last Quarter
Oct 15
New
Oct 21
First Quarter
Oct 29
Full

Hourly Weather History & Observations

Time (AKDT) Temp. Windchill Dew Point Humidity Pressure Visibility Wind Dir Wind Speed Gust Speed Precip Events Conditions
12:16 AM 48.2 °F - 46.4 °F 93% 29.44 in 3.0 mi South 31.1 mph 39.1 mph N/A   Overcast
12:36 AM 46.4 °F 37.0 °F 46.4 °F 100% 29.45 in 4.0 mi South 31.1 mph 41.4 mph N/A   Overcast
12:56 AM 48.2 °F - 46.4 °F 93% 29.46 in 6.0 mi South 27.6 mph 40.3 mph N/A   Overcast
1:16 AM 46.4 °F 37.5 °F 46.4 °F 100% 29.47 in 6.0 mi South 27.6 mph 38.0 mph N/A   Overcast
1:36 AM 46.4 °F 37.2 °F 44.6 °F 93% 29.49 in 10.0 mi South 29.9 mph 36.8 mph N/A   Overcast
1:56 AM 48.2 °F - 44.6 °F 87% 29.51 in 10.0 mi South 27.6 mph 35.7 mph N/A   Overcast
2:16 AM 48.2 °F - 44.6 °F 87% 29.53 in 7.0 mi South 25.3 mph 34.5 mph N/A   Overcast
2:36 AM 48.2 °F - 44.6 °F 87% 29.53 in 10.0 mi South 27.6 mph 32.2 mph N/A   Overcast
2:56 AM 46.4 °F 38.1 °F 44.6 °F 93% 29.55 in 10.0 mi South 24.2 mph 38.0 mph N/A   Overcast
3:16 AM 48.2 °F - 44.6 °F 87% 29.56 in 10.0 mi South 20.7 mph 31.1 mph N/A   Overcast
3:36 AM 48.2 °F - 44.6 °F 87% 29.58 in 7.0 mi South 24.2 mph 31.1 mph N/A   Mostly Cloudy
3:56 AM 46.4 °F 38.5 °F 44.6 °F 93% 29.59 in 5.0 mi South 21.9 mph 31.1 mph N/A   Overcast
4:16 AM 48.2 °F - 44.6 °F 87% 29.60 in 10.0 mi South 24.2 mph 27.6 mph N/A   Mostly Cloudy
4:36 AM 48.2 °F - 44.6 °F 87% 29.60 in 10.0 mi South 23.0 mph 28.8 mph N/A   Overcast
4:56 AM 48.2 °F - 44.6 °F 87% 29.60 in 10.0 mi South 25.3 mph 31.1 mph N/A   Overcast
5:16 AM 48.2 °F - 42.8 °F 82% 29.61 in 10.0 mi South 23.0 mph 29.9 mph N/A   Overcast
5:36 AM 48.2 °F - 42.8 °F 82% 29.61 in 8.0 mi South 32.2 mph 38.0 mph N/A   Overcast
5:56 AM 46.4 °F 38.3 °F 42.8 °F 87% 29.63 in 10.0 mi South 23.0 mph 28.8 mph N/A   Mostly Cloudy
6:16 AM 46.4 °F 38.3 °F 42.8 °F 87% 29.64 in 10.0 mi South 23.0 mph 29.9 mph N/A   Overcast
6:36 AM 48.2 °F - 41.0 °F 76% 29.64 in 10.0 mi South 24.2 mph 31.1 mph N/A   Overcast
6:56 AM 48.2 °F - 42.8 °F 82% 29.64 in 10.0 mi South 27.6 mph 33.4 mph N/A   Overcast
7:16 AM 46.4 °F 37.7 °F 42.8 °F 87% 29.65 in 8.0 mi South 26.5 mph 34.5 mph N/A   Mostly Cloudy
7:36 AM 46.4 °F 38.3 °F 42.8 °F 87% 29.67 in 10.0 mi South 23.0 mph 29.9 mph N/A   Mostly Cloudy
7:56 AM 48.2 °F - 42.8 °F 82% 29.66 in 10.0 mi South 25.3 mph 34.5 mph N/A   Mostly Cloudy
8:16 AM 48.2 °F - 42.8 °F 82% 29.67 in 10.0 mi South 25.3 mph 38.0 mph N/A   Mostly Cloudy
8:36 AM 48.2 °F - 42.8 °F 82% 29.66 in 10.0 mi South 26.5 mph 34.5 mph N/A   Mostly Cloudy
8:56 AM 48.2 °F - 42.8 °F 82% 29.67 in 10.0 mi South 32.2 mph 36.8 mph N/A   Mostly Cloudy
9:16 AM 48.2 °F - 44.6 °F 87% 29.67 in 10.0 mi South 28.8 mph 38.0 mph N/A   Mostly Cloudy
9:36 AM 48.2 °F - 44.6 °F 87% 29.68 in 10.0 mi South 27.6 mph 36.8 mph N/A   Mostly Cloudy
9:56 AM 48.2 °F - 44.6 °F 87% 29.69 in 10.0 mi South 28.8 mph 39.1 mph N/A   Mostly Cloudy
10:16 AM 48.2 °F - 44.6 °F 87% 29.69 in 10.0 mi South 31.1 mph 36.8 mph N/A   Mostly Cloudy
10:36 AM 48.2 °F - 44.6 °F 87% 29.68 in 10.0 mi South 33.4 mph 41.4 mph N/A   Mostly Cloudy
10:56 AM 48.2 °F - 44.6 °F 87% 29.72 in 10.0 mi South 27.6 mph 35.7 mph N/A   Mostly Cloudy
11:16 AM 48.2 °F - 42.8 °F 82% 29.73 in 10.0 mi South 29.9 mph 36.8 mph N/A   Mostly Cloudy
11:36 AM 48.2 °F - 41.0 °F 76% 29.74 in 10.0 mi South 31.1 mph 41.4 mph N/A   Mostly Cloudy
11:56 AM 48.2 °F - 42.8 °F 82% 29.75 in 10.0 mi South 29.9 mph 39.1 mph N/A   Mostly Cloudy
12:16 PM 48.2 °F - 42.8 °F 82% 29.74 in 10.0 mi South 31.1 mph 42.6 mph N/A   Mostly Cloudy
12:36 PM 48.2 °F - 41.0 °F 76% 29.75 in 10.0 mi South 32.2 mph 41.4 mph N/A   Mostly Cloudy
12:56 PM 48.2 °F - 42.8 °F 82% 29.77 in 10.0 mi South 32.2 mph 39.1 mph N/A   Mostly Cloudy
1:16 PM 48.2 °F - 42.8 °F 82% 29.79 in 10.0 mi South 29.9 mph 38.0 mph N/A   Mostly Cloudy
1:36 PM 48.2 °F - 42.8 °F 82% 29.80 in 10.0 mi South 29.9 mph 35.7 mph N/A   Mostly Cloudy
1:56 PM 48.2 °F - 42.8 °F 82% 29.81 in 10.0 mi South 29.9 mph 34.5 mph N/A   Mostly Cloudy
2:16 PM 48.2 °F - 42.8 °F 82% 29.81 in 10.0 mi South 28.8 mph 38.0 mph N/A   Mostly Cloudy
2:36 PM 48.2 °F - 42.8 °F 82% 29.81 in 10.0 mi South 31.1 mph 39.1 mph N/A   Mostly Cloudy
2:56 PM 48.2 °F - 42.8 °F 82% 29.80 in 10.0 mi South 33.4 mph 41.4 mph N/A   Mostly Cloudy
3:16 PM 48.2 °F - 42.8 °F 82% 29.82 in 10.0 mi South 32.2 mph 40.3 mph N/A   Mostly Cloudy
3:36 PM 48.2 °F - 42.8 °F 82% 29.83 in 10.0 mi South 29.9 mph 39.1 mph N/A   Mostly Cloudy
3:56 PM 48.2 °F - 42.8 °F 82% 29.83 in 10.0 mi South 29.9 mph 38.0 mph N/A   Mostly Cloudy
4:16 PM 48.2 °F - 42.8 °F 82% 29.83 in 10.0 mi South 34.5 mph 41.4 mph N/A   Mostly Cloudy
4:36 PM 48.2 °F - 42.8 °F 82% 29.84 in 10.0 mi South 32.2 mph 36.8 mph N/A   Mostly Cloudy
4:56 PM 48.2 °F - 42.8 °F 82% 29.85 in 10.0 mi South 29.9 mph 38.0 mph N/A   Mostly Cloudy
5:16 PM 48.2 °F - 42.8 °F 82% 29.85 in 10.0 mi South 31.1 mph 35.7 mph N/A   Mostly Cloudy
5:36 PM 48.2 °F - 42.8 °F 82% 29.86 in 10.0 mi South 31.1 mph 40.3 mph N/A   Mostly Cloudy
5:56 PM 48.2 °F - 42.8 °F 82% 29.86 in 10.0 mi South 29.9 mph 33.4 mph N/A   Mostly Cloudy
6:16 PM 48.2 °F - 42.8 °F 82% 29.86 in 10.0 mi South 28.8 mph 38.0 mph N/A   Mostly Cloudy
6:36 PM 48.2 °F - 42.8 °F 82% 29.87 in 10.0 mi South 28.8 mph 38.0 mph N/A   Mostly Cloudy
6:56 PM 48.2 °F - 42.8 °F 82% 29.89 in 10.0 mi South 24.2 mph - N/A   Mostly Cloudy
7:16 PM 48.2 °F - 42.8 °F 82% 29.89 in 10.0 mi South 29.9 mph 34.5 mph N/A   Mostly Cloudy
7:36 PM 48.2 °F - 42.8 °F 82% 29.90 in 10.0 mi South 24.2 mph 29.9 mph N/A   Mostly Cloudy
7:56 PM 48.2 °F - 42.8 °F 82% 29.90 in 10.0 mi South 27.6 mph 31.1 mph N/A   Mostly Cloudy
8:16 PM 48.2 °F - 42.8 °F 82% 29.91 in 10.0 mi South 24.2 mph 31.1 mph N/A   Overcast
8:36 PM 48.2 °F - 42.8 °F 82% 29.92 in 10.0 mi South 26.5 mph 32.2 mph N/A   Overcast
8:56 PM 48.2 °F - 42.8 °F 82% 29.94 in 10.0 mi South 21.9 mph 34.5 mph N/A   Overcast
9:16 PM 48.2 °F - 41.0 °F 76% 29.94 in 10.0 mi South 24.2 mph 31.1 mph N/A   Overcast
9:36 PM 48.2 °F - 42.8 °F 82% 29.93 in 10.0 mi South 24.2 mph 31.1 mph N/A   Overcast
9:56 PM 48.2 °F - 41.0 °F 76% 29.94 in 10.0 mi South 25.3 mph 32.2 mph N/A   Overcast
10:16 PM 48.2 °F - 41.0 °F 76% 29.95 in 10.0 mi South 24.2 mph 31.1 mph N/A   Overcast
10:36 PM 48.2 °F - 42.8 °F 82% 29.96 in 10.0 mi South 21.9 mph 29.9 mph N/A   Overcast
10:56 PM 48.2 °F - 42.8 °F 82% 29.96 in 10.0 mi South 23.0 mph 29.9 mph N/A   Overcast
11:16 PM 48.2 °F - 42.8 °F 82% 29.98 in 10.0 mi South 18.4 mph - N/A   Overcast
11:36 PM 48.2 °F - 42.8 °F 82% 29.96 in 10.0 mi South 23.0 mph 28.8 mph N/A   Mostly Cloudy
11:56 PM 46.4 °F 38.7 °F 42.8 °F 87% 29.97 in 10.0 mi South 20.7 mph 28.8 mph N/A   Mostly Cloudy